WXM80 ListenWXM80 Stop

You find our weather info also at:

UK Metoffice

WeatherCloud

Weather Underground

Northeastern Weather Network

AWEKAS

Citizen Weather Observer Program (CWOP)

HAMweather, WeatherForYou, PWS Weather


Weather Underground History page Text

Daily Summary for March 12, 2016 Units:  English    Metric   Both
« Previous Day
Next Day »
Daily Weekly Monthly Yearly Custom
  High: Low: Average:
Temperature: 58.3 °F 36.5 °F 47.4 °F
Dew Point: 43.7 °F 31.9 °F 37.8 °F
Humidity: 86 % 50 % 70 %
Wind Speed: 8.3 mph 0.0 mph 2.8 mph
Wind Gust: 13.8 mph - -
Wind:- - South
Pressure: 30.34 in 29.96 in -
Precipitation: 0.00 in    
Historical Graphs
 
 
Tabular Data for March 12, 2016
Time Temperature Dew Point Pressure Wind Wind Speed Wind Gust Humidity Rainfall Rate (Hourly)
00:02 44.6 °F 32.8 °F 30.33 in North 3.6 mph 6.9 mph 63 % 0.00 in
00:07 44.6 °F 32.8 °F 30.33 in North 1.6 mph 6.9 mph 63 % 0.00 in
00:12 44.5 °F 32.7 °F 30.33 in North 1.2 mph 3.5 mph 63 % 0.00 in
00:17 44.4 °F 33.4 °F 30.32 in NNW 0.4 mph 1.2 mph 65 % 0.00 in
00:22 44.4 °F 33.7 °F 30.32 in North 1.4 mph 3.0 mph 66 % 0.00 in
00:27 44.2 °F 33.9 °F 30.31 in NNW 0.6 mph 2.3 mph 67 % 0.00 in
00:37 43.8 °F 33.9 °F 30.32 in North 1.0 mph 3.5 mph 68 % 0.00 in
00:42 43.7 °F 33.8 °F 30.32 in North 0.5 mph 2.3 mph 68 % 0.00 in
00:48 43.4 °F 33.5 °F 30.32 in North 0.1 mph 3.5 mph 68 % 0.00 in
00:53 43.2 °F 33.7 °F 30.32 in North 2.1 mph 3.5 mph 69 % 0.00 in
00:58 43.1 °F 34.0 °F 30.32 in North 2.2 mph 3.5 mph 70 % 0.00 in
01:03 42.9 °F 34.1 °F 30.32 in NW 0.4 mph 3.5 mph 71 % 0.00 in
01:08 42.8 °F 34.4 °F 30.32 in North 3.0 mph 5.0 mph 72 % 0.00 in
01:13 42.7 °F 34.3 °F 30.32 in North 2.6 mph 7.0 mph 72 % 0.00 in
01:18 42.5 °F 33.8 °F 30.32 in North 1.3 mph 3.5 mph 71 % 0.00 in
01:23 42.5 °F 33.8 °F 30.33 in Calm   1.2 mph 71 % 0.00 in
01:28 42.4 °F 33.7 °F 30.34 in NW 0.3 mph 2.3 mph 71 % 0.00 in
01:33 42.4 °F 34.0 °F 30.33 in West 0.9 mph 3.0 mph 72 % 0.00 in
01:39 42.3 °F 33.9 °F 30.34 in NNW 0.4 mph 2.3 mph 72 % 0.00 in
01:44 42.3 °F 33.9 °F 30.34 in NNW 0.4 mph 1.2 mph 72 % 0.00 in
01:49 42.2 °F 34.2 °F 30.34 in Calm   1.2 mph 73 % 0.00 in
01:54 42.1 °F 34.4 °F 30.34 in NNW 0.6 mph 2.3 mph 74 % 0.00 in
01:59 42.0 °F 34.3 °F 30.33 in NNW 0.7 mph 1.2 mph 74 % 0.00 in
02:04 41.8 °F 34.5 °F 30.34 in NNW 1.3 mph 3.5 mph 75 % 0.00 in
02:09 41.7 °F 34.4 °F 30.33 in NNW 1.2 mph 2.3 mph 75 % 0.00 in
02:14 41.5 °F 34.5 °F 30.34 in NNW 1.7 mph 3.5 mph 76 % 0.00 in
02:19 41.3 °F 34.3 °F 30.34 in NNW 1.2 mph 3.0 mph 76 % 0.00 in
02:24 41.2 °F 34.5 °F 30.34 in NNW 1.8 mph 3.5 mph 77 % 0.00 in
02:30 41.1 °F 34.8 °F 30.34 in NNW 1.2 mph 3.5 mph 78 % 0.00 in
02:35 41.0 °F 34.3 °F 30.34 in NNW 3.5 mph 4.6 mph 77 % 0.00 in
02:40 40.9 °F 34.2 °F 30.34 in NNW 2.1 mph 3.0 mph 77 % 0.00 in
02:45 40.8 °F 34.1 °F 30.34 in North 2.6 mph 3.5 mph 77 % 0.00 in
02:50 40.8 °F 34.1 °F 30.34 in North 2.7 mph 4.6 mph 77 % 0.00 in
02:55 40.7 °F 34.0 °F 30.34 in NNE 1.0 mph 2.3 mph 77 % 0.00 in
03:00 40.7 °F 34.4 °F 30.34 in NNW 1.7 mph 4.0 mph 78 % 0.00 in
03:05 40.6 °F 34.3 °F 30.33 in NNW 1.0 mph 2.3 mph 78 % 0.00 in
03:10 40.6 °F 34.0 °F 30.33 in North 3.5 mph 5.0 mph 77 % 0.00 in
03:15 40.5 °F 34.2 °F 30.33 in North 2.5 mph 3.5 mph 78 % 0.00 in
03:21 40.5 °F 34.2 °F 30.33 in North 1.9 mph 4.0 mph 78 % 0.00 in
03:26 40.4 °F 34.4 °F 30.33 in North 1.7 mph 5.0 mph 79 % 0.00 in
03:31 40.3 °F 34.3 °F 30.33 in NNE 1.3 mph 3.5 mph 79 % 0.00 in
03:36 40.2 °F 34.2 °F 30.33 in NNE 2.8 mph 5.0 mph 79 % 0.00 in
03:41 40.1 °F 34.1 °F 30.33 in NE 2.5 mph 4.6 mph 79 % 0.00 in
03:46 40.1 °F 33.8 °F 30.33 in North 3.6 mph 5.0 mph 78 % 0.00 in
03:51 40.0 °F 33.7 °F 30.33 in North 4.2 mph 6.9 mph 78 % 0.00 in
03:56 40.0 °F 33.7 °F 30.34 in NNE 2.4 mph 3.5 mph 78 % 0.00 in
04:06 40.0 °F 34.0 °F 30.34 in North 1.8 mph 2.3 mph 79 % 0.00 in
04:12 39.9 °F 33.9 °F 30.34 in North 2.1 mph 4.6 mph 79 % 0.00 in
04:17 39.8 °F 33.8 °F 30.34 in NNW 1.3 mph 4.6 mph 79 % 0.00 in
04:22 39.8 °F 33.8 °F 30.34 in North 3.1 mph 5.8 mph 79 % 0.00 in
04:27 39.7 °F 33.7 °F 30.34 in North 2.3 mph 4.0 mph 79 % 0.00 in
04:32 39.6 °F 33.3 °F 30.33 in North 1.9 mph 3.5 mph 78 % 0.00 in
04:37 39.5 °F 33.2 °F 30.34 in NNW 0.2 mph 3.5 mph 78 % 0.00 in
04:42 39.4 °F 33.1 °F 30.34 in North 0.1 mph 1.2 mph 78 % 0.00 in
04:47 39.3 °F 33.0 °F 30.33 in NNE 1.4 mph 3.5 mph 78 % 0.00 in
04:52 39.3 °F 33.0 °F 30.33 in NNE 1.4 mph 3.5 mph 78 % 0.00 in
04:57 39.1 °F 32.8 °F 30.33 in North 3.8 mph 4.0 mph 78 % 0.00 in
05:03 38.9 °F 32.6 °F 30.33 in North 3.3 mph 4.0 mph 78 % 0.00 in
05:08 38.8 °F 32.5 °F 30.33 in North 3.7 mph 5.0 mph 78 % 0.00 in
05:13 38.8 °F 32.5 °F 30.33 in NNE 3.7 mph 5.8 mph 78 % 0.00 in
05:18 38.7 °F 32.7 °F 30.32 in NNE 3.7 mph 5.8 mph 79 % 0.00 in
05:23 38.7 °F 32.7 °F 30.33 in NNE 3.7 mph 5.8 mph 79 % 0.00 in
05:28 38.6 °F 32.6 °F 30.33 in North 1.7 mph 3.5 mph 79 % 0.00 in
05:33 38.6 °F 32.6 °F 30.34 in North 0.3 mph 2.3 mph 79 % 0.00 in
05:38 38.6 °F 32.6 °F 30.34 in Calm     79 % 0.00 in
05:43 38.5 °F 32.6 °F 30.33 in Calm     79 % 0.00 in
05:48 38.4 °F 32.5 °F 30.33 in Calm     79 % 0.00 in
05:54 38.3 °F 32.4 °F 30.32 in North 0.8 mph 2.3 mph 79 % 0.00 in
05:59 38.2 °F 32.3 °F 30.32 in North 1.1 mph 1.2 mph 79 % 0.00 in
06:04 37.9 °F 32.3 °F 30.32 in Calm   1.2 mph 80 % 0.00 in
06:09 37.5 °F 31.9 °F 30.32 in Calm     80 % 0.00 in
06:14 37.1 °F 32.1 °F 30.33 in Calm     82 % 0.00 in
06:19 36.8 °F 32.1 °F 30.33 in Calm     83 % 0.00 in
06:24 36.6 °F 31.9 °F 30.33 in Calm     83 % 0.00 in
06:29 36.5 °F 32.1 °F 30.33 in Calm     84 % 0.00 in
06:34 36.5 °F 32.1 °F 30.33 in Calm     84 % 0.00 in
06:39 36.5 °F 32.4 °F 30.33 in Calm     85 % 0.00 in
06:45 36.6 °F 32.5 °F 30.33 in North 0.1 mph 1.0 mph 85 % 0.00 in
06:50 36.7 °F 32.6 °F 30.33 in Calm   1.2 mph 85 % 0.00 in
06:55 36.9 °F 33.1 °F 30.33 in North 0.1 mph 1.2 mph 86 % 0.00 in
07:00 37.3 °F 33.5 °F 30.33 in Calm     86 % 0.00 in
07:05 37.5 °F 33.7 °F 30.33 in Calm     86 % 0.00 in
07:10 37.7 °F 33.9 °F 30.32 in Calm     86 % 0.00 in
07:15 38.1 °F 34.3 °F 30.33 in North 0.5 mph 2.0 mph 86 % 0.00 in
07:20 38.8 °F 35.0 °F 30.33 in North 0.3 mph 1.2 mph 86 % 0.00 in
07:25 39.5 °F 35.1 °F 30.33 in NNE 2.7 mph 5.0 mph 84 % 0.00 in
07:30 40.2 °F 35.1 °F 30.33 in NNE 2.4 mph 3.5 mph 82 % 0.00 in
07:36 40.8 °F 35.4 °F 30.33 in NNE 0.1 mph 2.3 mph 81 % 0.00 in
07:41 41.4 °F 35.7 °F 30.32 in NNE 3.4 mph 4.6 mph 80 % 0.00 in
07:46 42.0 °F 35.6 °F 30.32 in NE 1.8 mph 4.0 mph 78 % 0.00 in
07:51 42.5 °F 36.1 °F 30.32 in NNE 2.8 mph 5.0 mph 78 % 0.00 in
07:56 43.1 °F 36.4 °F 30.32 in NNE 3.8 mph 4.6 mph 77 % 0.00 in
08:01 43.6 °F 36.9 °F 30.32 in NNE 1.9 mph 4.6 mph 77 % 0.00 in
08:06 43.9 °F 36.8 °F 30.32 in NNE 3.7 mph 5.0 mph 76 % 0.00 in
08:11 44.3 °F 37.2 °F 30.32 in NNE 1.8 mph 3.5 mph 76 % 0.00 in
08:16 44.3 °F 36.2 °F 30.32 in NNE 1.2 mph 3.5 mph 73 % 0.00 in
08:21 44.3 °F 36.2 °F 30.32 in NE 3.2 mph 5.0 mph 73 % 0.00 in
08:27 44.4 °F 35.9 °F 30.32 in North 1.6 mph 3.5 mph 72 % 0.00 in
08:32 44.5 °F 36.4 °F 30.32 in NNW 1.7 mph 3.5 mph 73 % 0.00 in
08:37 44.5 °F 36.4 °F 30.32 in NNE 2.1 mph 3.5 mph 73 % 0.00 in
08:42 44.6 °F 36.5 °F 30.32 in North 0.5 mph 2.0 mph 73 % 0.00 in
08:47 44.9 °F 36.4 °F 30.32 in North 2.4 mph 3.5 mph 72 % 0.00 in
08:52 45.3 °F 36.8 °F 30.32 in North 3.4 mph 3.5 mph 72 % 0.00 in
08:57 45.5 °F 36.6 °F 30.32 in NNE 3.0 mph 3.5 mph 71 % 0.00 in
09:02 45.7 °F 36.5 °F 30.32 in NNE 2.4 mph 3.5 mph 70 % 0.00 in
09:07 45.7 °F 36.1 °F 30.32 in NNE 2.0 mph 3.5 mph 69 % 0.00 in
09:12 45.7 °F 36.5 °F 30.32 in NNE 4.1 mph 5.0 mph 70 % 0.00 in
09:15 48.9 °F 37.3 °F 30.29 in NE 5.0 mph 7.0 mph 64 % 0.00 in
09:18 45.8 °F 36.6 °F 30.32 in NNE 4.9 mph 5.8 mph 70 % 0.00 in
09:23 45.9 °F 36.7 °F 30.32 in ENE 2.1 mph 4.6 mph 70 % 0.00 in
09:28 46.1 °F 36.9 °F 30.32 in NNE 2.1 mph 3.5 mph 70 % 0.00 in
09:33 46.4 °F 35.7 °F 30.32 in NNE 2.4 mph 4.6 mph 66 % 0.00 in
09:43 47.2 °F 36.8 °F 30.32 in NE 1.8 mph 4.6 mph 67 % 0.00 in
09:48 47.6 °F 36.8 °F 30.32 in ENE 3.7 mph 4.6 mph 66 % 0.00 in
09:53 47.7 °F 36.5 °F 30.32 in North 2.9 mph 4.6 mph 65 % 0.00 in
09:58 47.9 °F 36.7 °F 30.31 in NNE 2.0 mph 3.5 mph 65 % 0.00 in
10:03 47.9 °F 36.3 °F 30.30 in North 2.5 mph 5.8 mph 64 % 0.00 in
10:09 48.3 °F 37.1 °F 30.29 in NNE 1.4 mph 3.5 mph 65 % 0.00 in
10:14 48.8 °F 37.2 °F 30.29 in NE 2.3 mph 3.5 mph 64 % 0.00 in
10:19 48.7 °F 36.7 °F 30.29 in North 6.7 mph 6.9 mph 63 % 0.00 in
10:24 48.6 °F 37.0 °F 30.29 in ENE 3.6 mph 5.0 mph 64 % 0.00 in
10:29 48.6 °F 36.2 °F 30.29 in ENE 2.7 mph 4.0 mph 62 % 0.00 in
10:34 48.7 °F 37.8 °F 30.28 in ENE 3.3 mph 6.0 mph 66 % 0.00 in
10:39 48.4 °F 37.2 °F 30.28 in NNE 3.2 mph 4.0 mph 65 % 0.00 in
10:44 48.1 °F 36.5 °F 30.28 in ENE 4.5 mph 4.6 mph 64 % 0.00 in
10:49 48.3 °F 37.5 °F 30.28 in NE 3.4 mph 5.8 mph 66 % 0.00 in
10:54 48.6 °F 37.7 °F 30.28 in NNE 4.2 mph 5.8 mph 66 % 0.00 in
11:00 49.2 °F 37.9 °F 30.27 in ENE 2.8 mph 5.8 mph 65 % 0.00 in
11:05 49.5 °F 37.4 °F 30.27 in NE 3.2 mph 5.0 mph 63 % 0.00 in
11:10 49.4 °F 37.3 °F 30.27 in ENE 1.7 mph 4.6 mph 63 % 0.00 in
11:15 49.3 °F 37.2 °F 30.26 in East 3.6 mph 6.9 mph 63 % 0.00 in
11:20 49.7 °F 38.4 °F 30.26 in North 3.3 mph 6.0 mph 65 % 0.00 in
11:25 50.5 °F 38.8 °F 30.26 in NNE 4.6 mph 6.9 mph 64 % 0.00 in
11:30 50.5 °F 37.5 °F 30.25 in NNE 3.0 mph 6.9 mph 61 % 0.00 in
11:35 50.1 °F 38.8 °F 30.25 in ENE 2.8 mph 5.0 mph 65 % 0.00 in
11:40 49.4 °F 37.7 °F 30.24 in NE 2.9 mph 4.6 mph 64 % 0.00 in
11:45 48.7 °F 37.1 °F 30.24 in ENE 3.9 mph 7.0 mph 64 % 0.00 in
11:51 48.0 °F 37.2 °F 30.24 in NE 2.9 mph 4.0 mph 66 % 0.00 in
11:56 48.3 °F 38.2 °F 30.24 in North 2.3 mph 4.0 mph 68 % 0.00 in
12:01 48.3 °F 37.1 °F 30.24 in ENE 3.2 mph 6.9 mph 65 % 0.00 in
12:06 48.7 °F 38.6 °F 30.24 in ENE 2.2 mph 4.6 mph 68 % 0.00 in
12:11 49.6 °F 39.1 °F 30.23 in NE 3.1 mph 4.6 mph 67 % 0.00 in
12:16 49.9 °F 37.8 °F 30.23 in NE 1.9 mph 3.5 mph 63 % 0.00 in
12:21 50.0 °F 38.3 °F 30.22 in NE 0.8 mph 2.3 mph 64 % 0.00 in
12:26 50.2 °F 39.3 °F 30.22 in NE 1.7 mph 3.5 mph 66 % 0.00 in
12:31 50.6 °F 39.3 °F 30.22 in NE 1.8 mph 3.5 mph 65 % 0.00 in
12:36 51.1 °F 39.3 °F 30.21 in NNE 4.5 mph 4.5 mph 64 % 0.00 in
12:42 51.8 °F 40.0 °F 30.21 in NNE 2.8 mph 3.5 mph 64 % 0.00 in
12:47 52.4 °F 40.6 °F 30.20 in NNE 2.1 mph 4.0 mph 64 % 0.00 in
12:52 52.6 °F 39.9 °F 30.20 in NE 2.0 mph 4.6 mph 62 % 0.00 in
12:57 52.2 °F 39.6 °F 30.20 in ENE 3.7 mph 4.6 mph 62 % 0.00 in
13:02 52.4 °F 39.3 °F 30.19 in NNE 2.6 mph 4.6 mph 61 % 0.00 in
13:07 52.7 °F 39.2 °F 30.19 in North 1.4 mph 3.5 mph 60 % 0.00 in
13:12 53.2 °F 39.7 °F 30.18 in NNE 2.2 mph 3.5 mph 60 % 0.00 in
13:17 52.8 °F 39.3 °F 30.17 in NE 3.9 mph 6.9 mph 60 % 0.00 in
13:22 52.4 °F 40.2 °F 30.17 in ENE 2.8 mph 3.5 mph 63 % 0.00 in
13:27 52.2 °F 40.4 °F 30.17 in NE 1.0 mph 3.0 mph 64 % 0.00 in
13:33 52.9 °F 41.0 °F 30.17 in ENE 1.4 mph 3.0 mph 64 % 0.00 in
13:38 52.3 °F 39.2 °F 30.16 in NE 3.0 mph 6.9 mph 61 % 0.00 in
13:43 52.0 °F 39.4 °F 30.16 in North 2.5 mph 6.9 mph 62 % 0.00 in
13:48 52.3 °F 40.1 °F 30.15 in NE 0.4 mph 1.2 mph 63 % 0.00 in
13:53 52.5 °F 40.3 °F 30.15 in NNE 0.8 mph 2.3 mph 63 % 0.00 in
13:58 52.6 °F 40.8 °F 30.14 in ENE 3.0 mph 4.6 mph 64 % 0.00 in
14:03 52.8 °F 40.5 °F 30.14 in South 2.1 mph 3.5 mph 63 % 0.00 in
14:08 53.7 °F 40.6 °F 30.14 in SSW 5.5 mph 12.0 mph 61 % 0.00 in
14:13 55.0 °F 40.0 °F 30.13 in SSE 3.3 mph 9.2 mph 57 % 0.00 in
14:18 55.9 °F 40.4 °F 30.13 in SSW 7.5 mph 9.2 mph 56 % 0.00 in
14:24 56.8 °F 39.8 °F 30.13 in SSE 2.8 mph 4.6 mph 53 % 0.00 in
14:29 57.0 °F 39.5 °F 30.12 in South 4.2 mph 7.0 mph 52 % 0.00 in
14:34 57.3 °F 40.3 °F 30.11 in SSW 5.5 mph 9.2 mph 53 % 0.00 in
14:39 57.7 °F 40.7 °F 30.11 in SW 5.3 mph 9.2 mph 53 % 0.00 in
14:44 58.0 °F 40.5 °F 30.11 in SW 5.0 mph 8.1 mph 52 % 0.00 in
14:49 58.1 °F 40.1 °F 30.11 in WSW 4.9 mph 10.4 mph 51 % 0.00 in
14:59 58.3 °F 40.2 °F 30.10 in South 2.0 mph 6.9 mph 51 % 0.00 in
15:04 58.2 °F 40.6 °F 30.10 in SW 3.3 mph 6.9 mph 52 % 0.00 in
15:09 58.3 °F 40.2 °F 30.09 in South 4.4 mph 8.1 mph 51 % 0.00 in
15:15 58.2 °F 40.1 °F 30.09 in SSW 5.4 mph 6.0 mph 51 % 0.00 in
15:20 58.1 °F 39.5 °F 30.09 in South 4.1 mph 7.0 mph 50 % 0.00 in
15:25 58.0 °F 39.5 °F 30.09 in WSW 5.6 mph 9.2 mph 50 % 0.00 in
15:30 57.8 °F 39.8 °F 30.08 in South 7.5 mph 13.8 mph 51 % 0.00 in
15:40 57.4 °F 39.9 °F 30.07 in SSW 5.1 mph 10.0 mph 52 % 0.00 in
15:45 57.2 °F 40.2 °F 30.08 in SW 6.2 mph 8.1 mph 53 % 0.00 in
15:50 57.0 °F 40.0 °F 30.07 in SW 5.6 mph 9.2 mph 53 % 0.00 in
15:55 56.9 °F 40.4 °F 30.07 in SW 6.1 mph 10.0 mph 54 % 0.00 in
16:00 56.7 °F 40.2 °F 30.06 in SSW 5.4 mph 6.9 mph 54 % 0.00 in
16:06 56.4 °F 40.0 °F 30.06 in South 4.1 mph 6.9 mph 54 % 0.00 in
16:11 56.0 °F 40.1 °F 30.06 in South 5.7 mph 11.5 mph 55 % 0.00 in
16:16 55.6 °F 39.7 °F 30.05 in South 5.0 mph 8.1 mph 55 % 0.00 in
16:21 55.3 °F 39.9 °F 30.05 in South 6.7 mph 11.5 mph 56 % 0.00 in
16:26 55.1 °F 39.7 °F 30.05 in SW 2.0 mph 3.5 mph 56 % 0.00 in
16:31 54.9 °F 39.9 °F 30.05 in South 4.1 mph 6.0 mph 57 % 0.00 in
16:36 54.8 °F 39.8 °F 30.05 in SSW 5.4 mph 8.1 mph 57 % 0.00 in
16:41 54.6 °F 39.7 °F 30.05 in South 5.6 mph 8.0 mph 57 % 0.00 in
16:46 54.4 °F 39.5 °F 30.05 in South 2.9 mph 7.0 mph 57 % 0.00 in
16:51 54.2 °F 39.3 °F 30.05 in SSW 6.2 mph 8.1 mph 57 % 0.00 in
16:57 54.0 °F 39.5 °F 30.04 in South 5.7 mph 7.0 mph 58 % 0.00 in
17:02 53.8 °F 39.4 °F 30.04 in South 4.1 mph 6.9 mph 58 % 0.00 in
17:07 53.7 °F 39.3 °F 30.04 in South 3.9 mph 6.9 mph 58 % 0.00 in
17:12 53.6 °F 39.2 °F 30.04 in SSW 3.5 mph 5.8 mph 58 % 0.00 in
17:17 53.5 °F 39.1 °F 30.04 in WSW 3.2 mph 8.0 mph 58 % 0.00 in
17:22 53.3 °F 38.4 °F 30.04 in SSW 3.3 mph 4.6 mph 57 % 0.00 in
17:27 53.2 °F 38.8 °F 30.04 in SSW 0.8 mph 3.5 mph 58 % 0.00 in
17:32 53.0 °F 38.6 °F 30.04 in South 4.2 mph 4.6 mph 58 % 0.00 in
17:37 52.8 °F 38.9 °F 30.04 in West 2.1 mph 4.0 mph 59 % 0.00 in
17:42 52.7 °F 38.8 °F 30.03 in SSE 2.4 mph 4.0 mph 59 % 0.00 in
17:48 52.4 °F 38.9 °F 30.03 in SSW 0.9 mph 5.8 mph 60 % 0.00 in
17:53 52.2 °F 39.1 °F 30.04 in SSW 3.6 mph 6.9 mph 61 % 0.00 in
17:58 51.9 °F 39.3 °F 30.04 in SSE 1.7 mph 3.5 mph 62 % 0.00 in
18:03 51.6 °F 39.8 °F 30.03 in South 2.7 mph 4.0 mph 64 % 0.00 in
18:08 51.3 °F 39.9 °F 30.03 in SSW 3.8 mph 10.0 mph 65 % 0.00 in
18:18 50.6 °F 40.0 °F 30.03 in South 3.4 mph 6.9 mph 67 % 0.00 in
18:23 50.4 °F 40.2 °F 30.03 in SSW 2.8 mph 5.0 mph 68 % 0.00 in
18:28 50.1 °F 39.9 °F 30.03 in South 2.5 mph 5.8 mph 68 % 0.00 in
18:33 49.9 °F 40.1 °F 30.03 in SW 2.3 mph 6.0 mph 69 % 0.00 in
18:39 49.7 °F 40.3 °F 30.02 in South 3.3 mph 6.9 mph 70 % 0.00 in
18:44 49.6 °F 40.2 °F 30.02 in SSW 1.8 mph 3.5 mph 70 % 0.00 in
18:49 49.4 °F 40.4 °F 30.02 in SW 1.6 mph 3.5 mph 71 % 0.00 in
18:54 49.3 °F 40.3 °F 30.01 in SSW 3.6 mph 4.6 mph 71 % 0.00 in
18:59 49.2 °F 40.6 °F 30.01 in SSW 4.6 mph 7.0 mph 72 % 0.00 in
19:04 49.0 °F 40.7 °F 30.01 in SSW 3.5 mph 5.0 mph 73 % 0.00 in
19:09 48.9 °F 40.6 °F 30.01 in SW 4.2 mph 8.0 mph 73 % 0.00 in
19:14 48.7 °F 40.8 °F 30.01 in SSW 2.3 mph 5.8 mph 74 % 0.00 in
19:19 48.7 °F 40.8 °F 30.01 in SW 6.0 mph 6.9 mph 74 % 0.00 in
19:24 48.6 °F 41.0 °F 30.01 in SW 5.1 mph 11.5 mph 75 % 0.00 in
19:30 48.6 °F 41.0 °F 30.01 in SW 5.5 mph 6.9 mph 75 % 0.00 in
19:40 48.6 °F 41.4 °F 30.00 in SW 4.3 mph 9.0 mph 76 % 0.00 in
19:45 48.7 °F 41.5 °F 30.01 in SW 5.6 mph 8.1 mph 76 % 0.00 in
19:50 48.8 °F 41.6 °F 30.01 in SW 4.2 mph 6.9 mph 76 % 0.00 in
19:55 48.9 °F 41.7 °F 30.01 in WSW 1.1 mph 3.0 mph 76 % 0.00 in
20:00 48.9 °F 41.7 °F 30.01 in SSW 1.0 mph 3.5 mph 76 % 0.00 in
20:05 49.0 °F 42.1 °F 30.00 in SW 2.0 mph 4.0 mph 77 % 0.00 in
20:10 49.1 °F 41.9 °F 30.00 in SSW 0.6 mph 2.3 mph 76 % 0.00 in
20:16 49.1 °F 42.2 °F 30.00 in South 3.3 mph 6.9 mph 77 % 0.00 in
20:21 49.2 °F 42.3 °F 30.00 in SSW 0.4 mph 3.5 mph 77 % 0.00 in
20:26 49.2 °F 42.3 °F 30.00 in Calm   1.2 mph 77 % 0.00 in
20:31 49.2 °F 42.3 °F 30.00 in SW 3.0 mph 4.0 mph 77 % 0.00 in
20:36 49.3 °F 42.4 °F 30.00 in WSW 3.5 mph 7.0 mph 77 % 0.00 in
20:41 49.4 °F 42.5 °F 30.00 in WSW 3.4 mph 7.0 mph 77 % 0.00 in
20:51 49.7 °F 42.8 °F 30.00 in SW 2.6 mph 4.6 mph 77 % 0.00 in
20:56 49.8 °F 42.9 °F 30.00 in SSW 3.9 mph 8.1 mph 77 % 0.00 in
21:01 50.0 °F 43.1 °F 30.00 in SW 4.3 mph 6.9 mph 77 % 0.00 in
21:07 50.2 °F 43.3 °F 30.00 in WSW 8.3 mph 11.5 mph 77 % 0.00 in
21:12 50.5 °F 43.2 °F 30.00 in WSW 5.0 mph 6.9 mph 76 % 0.00 in
21:17 50.8 °F 43.5 °F 30.00 in SW 5.6 mph 10.4 mph 76 % 0.00 in
21:22 51.0 °F 43.4 °F 30.00 in SW 2.7 mph 3.5 mph 75 % 0.00 in
21:27 51.2 °F 43.5 °F 30.00 in SW 5.6 mph 8.1 mph 75 % 0.00 in
21:32 51.3 °F 43.6 °F 30.00 in WSW 5.4 mph 10.4 mph 75 % 0.00 in
21:33 51.3 °F 43.6 °F 30.00 in SW 3.4 mph 6.9 mph 75 % 0.00 in
21:38 51.4 °F 43.7 °F 29.99 in SSW 5.6 mph 10.0 mph 75 % 0.00 in
21:43 51.4 °F 43.7 °F 29.99 in SW 4.2 mph 6.9 mph 75 % 0.00 in
21:48 51.4 °F 43.7 °F 29.99 in SSW 4.8 mph 8.1 mph 75 % 0.00 in
21:53 51.4 °F 43.7 °F 29.99 in SSW 3.6 mph 6.9 mph 75 % 0.00 in
21:58 51.4 °F 43.7 °F 29.98 in SW 3.8 mph 5.0 mph 75 % 0.00 in
22:03 51.4 °F 43.7 °F 29.98 in SW 4.1 mph 7.0 mph 75 % 0.00 in
22:08 51.4 °F 43.4 °F 29.98 in SW 5.8 mph 7.0 mph 74 % 0.00 in
22:14 51.4 °F 43.4 °F 29.98 in WSW 4.7 mph 8.1 mph 74 % 0.00 in
22:19 51.4 °F 43.4 °F 29.97 in SSW 6.5 mph 10.4 mph 74 % 0.00 in
22:24 51.5 °F 43.5 °F 29.98 in WSW 5.3 mph 9.2 mph 74 % 0.00 in
22:29 51.5 °F 43.5 °F 29.98 in WSW 5.1 mph 8.1 mph 74 % 0.00 in
22:34 51.5 °F 43.5 °F 29.98 in SW 4.4 mph 6.9 mph 74 % 0.00 in
22:39 51.5 °F 43.5 °F 29.98 in SW 4.1 mph 8.1 mph 74 % 0.00 in
22:44 51.5 °F 43.5 °F 29.97 in WSW 5.7 mph 8.1 mph 74 % 0.00 in
22:49 51.5 °F 43.5 °F 29.97 in SW 5.1 mph 11.5 mph 74 % 0.00 in
23:10 51.4 °F 43.4 °F 29.97 in WSW 1.2 mph 3.5 mph 74 % 0.00 in
23:15 51.4 °F 43.0 °F 29.97 in SW 1.7 mph 3.5 mph 73 % 0.00 in
23:20 51.3 °F 43.3 °F 29.97 in WSW 2.6 mph 4.6 mph 74 % 0.00 in
23:25 51.2 °F 43.2 °F 29.97 in SW 1.9 mph 3.5 mph 74 % 0.00 in
23:30 51.0 °F 43.0 °F 29.96 in WSW 1.1 mph 2.3 mph 74 % 0.00 in
23:35 50.9 °F 42.9 °F 29.97 in SW 3.8 mph 5.0 mph 74 % 0.00 in
23:40 50.8 °F 42.8 °F 29.96 in SW 1.7 mph 3.5 mph 74 % 0.00 in
23:45 50.7 °F 43.1 °F 29.97 in SW 2.7 mph 4.0 mph 75 % 0.00 in
23:50 50.6 °F 43.0 °F 29.96 in WSW 2.6 mph 6.0 mph 75 % 0.00 in
23:56 50.5 °F 42.9 °F 29.97 in SW 1.0 mph 3.5 mph 75 % 0.00 in
Crab Meadow Weather
Compliments of Weather Underground - 2.75 mb

Script developed by  Jim McMurry - jmcmurry@mwt.net Adapted for the template by  Wim van der Kuil - Leuven-Template.eu

Weather Terms: Funnel Cloud - A rotating column of air, extending from a towering cumulus or cumulonimbus cloud, that is not in contact with the ground.